Location: Casco Millpond
(44.5581°N, 87.6111°W)
Time: 09:53:39
(UTC+00:00)

Meteor 2-15 - Pass Details

Date: 16 January 2026
Orbit: 935 x 955 km, 82.5° (Epoch: 9 February)

Event Time Altitude Azimuth Distance (km) Brightness Sun altitude
Rises 23:39:42 0° 353° (N) 3,637 7.4 -10.9°
Reaches altitude 10° 23:42:15 10° 356° (N) 2,685 6.7 -11.3°
Maximum altitude 23:48:22 69° 79° (E) 1,014 4.4 -12.4°
Drops below altitude 10° 23:54:25 10° 163° (SSE) 2,653 6.8 -13.4°
Sets 23:56:54 0° 166° (SSE) 3,591 7.5 -13.8°
